2017-080C

Last updated on Sun Dec 17 2017 00:15:04 GMT+0000 (Greenwich Mean Time)

1 43062U 17080C 17350.89724665 .01940716 11516-4 17037-2 0 9990 2 43062 51.6544 207.3772 0101606 51.1121 309.8898 16.02019084 203

Satellite not in orbit